QPF
0.07 0.08 0.15 0.21 0.22 0.21 0.22 0.15 0.09 0.06 0.04 0.01 0.02 0.01 0.02 0.08 0.13 0.16 0.12 0.07 0.02 0.01 0.01 0.01 0.02 0.02 0.03 0.04 0.03 0.03 0.05 0.04 0.04 0.05 0.06 0.07 0.07 0.07 0.07 0.07 0.05 0.04 0.03 0.03 0.04 0.04 0.03 0.03 0.02
0.08 0.11 0.14 0.18 0.20 0.22 0.20 0.13 0.08 0.05 0.02 0.01 0.00 0.00 0.02 0.02 0.02 0.05 0.08 0.06 0.02 0.02 0.02 0.03 0.03 0.03 0.02 0.02 0.02 0.02 0.03 0.04 0.04 0.05 0.05 0.06 0.06 0.06 0.07 0.09 0.08 0.07 0.05 0.05 0.05 0.05 0.04 0.03 0.02
0.07 0.12 0.17 0.21 0.20 0.19 0.18 0.08 0.04 0.02 0.01 0.01 0.00 0.00 0.01 0.02 0.02 0.05 0.07 0.03 0.01 0.02 0.02 0.02 0.02 0.02 0.02 0.03 0.03 0.03 0.03 0.04 0.05 0.04 0.04 0.05 0.06 0.08 0.09 0.09 0.09 0.08 0.07 0.07 0.07 0.07 0.06 0.05 0.04
0.11 0.17 0.16 0.19 0.20 0.12 0.07 0.03 0.02 0.02 0.01 0.00 0.01 0.01 0.01 0.01 0.01 0.02 0.02 0.01 0.01 0.01 0.01 0.01 0.01 0.02 0.02 0.03 0.03 0.03 0.03 0.04 0.04 0.03 0.03 0.03 0.05 0.07 0.09 0.08 0.08 0.08 0.09 0.09 0.09 0.09 0.08 0.06 0.05
0.18 0.21 0.21 0.21 0.18 0.06 0.01 0.01 0.00 0.01 0.01 0.01 0.01 0.02 0.03 0.01 0.01 0.01 0.00 0.00 0.00 0.01 0.01 0.01 0.01 0.01 0.02 0.01 0.01 0.01 0.02 0.02 0.02 0.02 0.03 0.04 0.04 0.07 0.09 0.07 0.08 0.08 0.09 0.09 0.09 0.10 0.10 0.09 0.06
0.21 0.20 0.22 0.24 0.18 0.05 0.02 0.02 0.01 0.01 0.01 0.01 0.01 0.01 0.03 0.03 0.01 0.02 0.01 0.01 0.01 0.01 0.01 0.01 0.00 0.00 0.00 0.00 0.00 0.01 0.01 0.01 0.02 0.02 0.02 0.03 0.04 0.06 0.06 0.06 0.09 0.09 0.09 0.10 0.11 0.10 0.10 0.11 0.08
0.20 0.18 0.17 0.16 0.15 0.08 0.03 0.02 0.00 0.01 0.01 0.01 0.01 0.01 0.03 0.04 0.01 0.01 0.01 0.01 0.01 0.00 0.00 0.00 0.00 0.00 0.00 0.00 0.00 0.00 0.01 0.01 0.01 0.01 0.01 0.02 0.02 0.03 0.04 0.05 0.07 0.09 0.11 0.12 0.12 0.10 0.09 0.10 0.09
0.15 0.16 0.11 0.09 0.11 0.09 0.02 0.01 0.00 0.01 0.01 0.01 0.01 0.01 0.03 0.04 0.01 0.00 0.00 0.00 0.00 0.00 0.00 0.00 0.00 0.00 0.00 0.00 0.00 0.00 0.00 0.00 0.00 0.00 0.01 0.01 0.01 0.01 0.02 0.04 0.06 0.07 0.10 0.13 0.12 0.11 0.10 0.12 0.13
0.11 0.17 0.13 0.08 0.07 0.06 0.01 0.01 0.00 0.00 0.01 0.00 0.00 0.01 0.01 0.02 0.01 0.01 0.01 0.00 0.00 0.00 0.00 0.00 0.00 0.00 0.00 0.00 0.00 0.00 0.00 0.00 0.00 0.01 0.00 0.00 0.01 0.02 0.04 0.04 0.05 0.06 0.07 0.10 0.12 0.12 0.11 0.12 0.11
0.13 0.15 0.09 0.04 0.02 0.03 0.02 0.01 0.01 0.00 0.01 0.01 0.00 0.00 0.00 0.00 0.00 0.00 0.01 0.01 0.01 0.01 0.00 0.00 0.00 0.00 0.00 0.00 0.00 0.00 0.00 0.00 0.00 0.00 0.00 0.01 0.01 0.01 0.02 0.03 0.04 0.05 0.06 0.08 0.10 0.10 0.09 0.09 0.06
0.06 0.05 0.03 0.03 0.03 0.02 0.01 0.01 0.00 0.00 0.01 0.01 0.00 0.00 0.00 0.00 0.00 0.00 0.00 0.01 0.00 0.00 0.00 0.00 0.00 0.00 0.00 0.00 0.00 0.00 0.00 0.00 0.00 0.00 0.00 0.00 0.00 0.00 0.01 0.02 0.03 0.04 0.05 0.08 0.09 0.09 0.08 0.06 0.06
0.04 0.04 0.01 0.02 0.00 0.00 0.00 0.00 0.00 0.00 0.01 0.01 0.00 0.01 0.00 0.00 0.00 0.00 0.00 0.00 0.00 0.00 0.00 0.00 0.00 0.00 0.00 0.00 0.00 0.00 0.00 0.00 0.00 0.00 0.00 0.00 0.00 0.00 0.00 0.01 0.02 0.02 0.03 0.06 0.08 0.12 0.11 0.09 0.08
0.04 0.02 0.02 0.01 0.00 0.01 0.01 0.00 0.00 0.00 0.01 0.00 0.01 0.03 0.01 0.00 0.00 0.00 0.00 0.00 0.00 0.00 0.00 0.00 0.00 0.00 0.00 0.00 0.00 0.00 0.00 0.00 0.00 0.00 0.00 0.00 0.00 0.00 0.00 0.00 0.01 0.01 0.02 0.03 0.04 0.07 0.09 0.09 0.09
0.03 0.02 0.01 0.00 0.00 0.01 0.01 0.01 0.00 0.01 0.00 0.00 0.00 0.03 0.02 0.00 0.00 0.00 0.00 0.00 0.00 0.00 0.00 0.00 0.00 0.00 0.00 0.00 0.00 0.00 0.00 0.00 0.01 0.01 0.00 0.00 0.00 0.00 0.00 0.00 0.01 0.01 0.01 0.01 0.02 0.02 0.05 0.08 0.09
0.04 0.05 0.03 0.01 0.01 0.01 0.02 0.04 0.02 0.00 0.00 0.00 0.00 0.00 0.01 0.00 0.00 0.00 0.00 0.00 0.00 0.01 0.00 0.00 0.00 0.00 0.00 0.00 0.00 0.00 0.00 0.00 0.00 0.01 0.01 0.00 0.00 0.00 0.00 0.00 0.01 0.01 0.01 0.02 0.02 0.03 0.03 0.04 0.06
0.07 0.09 0.11 0.03 0.01 0.01 0.02 0.04 0.02 0.01 0.01 0.00 0.00 0.00 0.00 0.00 0.00 0.00 0.00 0.00 0.00 0.00 0.00 0.00 0.00 0.00 0.00 0.00 0.00 0.01 0.01 0.01 0.01 0.02 0.02 0.01 0.00 0.00 0.00 0.00 0.01 0.01 0.01 0.02 0.02 0.02 0.03 0.04 0.05
0.08 0.10 0.10 0.05 0.01 0.00 0.02 0.03 0.02 0.02 0.02 0.02 0.01 0.00 0.00 0.00 0.00 0.00 0.00 0.00 0.00 0.00 0.00 0.00 0.00 0.00 0.00 0.00 0.00 0.00 0.01 0.01 0.01 0.01 0.02 0.02 0.02 0.01 0.01 0.01 0.02 0.02 0.02 0.02 0.02 0.02 0.04 0.05 0.04
0.08 0.05 0.05 0.03 0.02 0.01 0.01 0.02 0.03 0.03 0.01 0.02 0.03 0.01 0.00 0.00 0.00 0.00 0.00 0.00 0.00 0.00 0.00 0.00 0.00 0.00 0.00 0.00 0.00 0.00 0.01 0.01 0.01 0.00 0.00 0.01 0.02 0.02 0.03 0.02 0.01 0.02 0.02 0.02 0.03 0.04 0.04 0.05 0.06
0.06 0.07 0.07 0.06 0.03 0.02 0.01 0.01 0.01 0.01 0.01 0.01 0.02 0.01 0.01 0.00 0.00 0.00 0.00 0.00 0.00 0.00 0.00 0.00 0.00 0.00 0.00 0.00 0.00 0.00 0.01 0.01 0.01 0.01 0.00 0.00 0.01 0.02 0.03 0.03 0.03 0.03 0.03 0.04 0.04 0.05 0.06 0.05 0.05
0.07 0.07 0.06 0.06 0.04 0.02 0.00 0.01 0.02 0.01 0.00 0.01 0.01 0.01 0.02 0.01 0.00 0.00 0.00 0.00 0.00 0.00 0.00 0.00 0.00 0.00 0.00 0.00 0.00 0.00 0.00 0.00 0.01 0.01 0.01 0.01 0.01 0.01 0.02 0.03 0.05 0.04 0.05 0.06 0.06 0.08 0.06 0.05 0.05
0.05 0.06 0.06 0.06 0.04 0.01 0.01 0.01 0.00 0.00 0.00 0.00 0.00 0.01 0.03 0.01 0.01 0.01 0.00 0.00 0.00 0.00 0.00 0.00 0.00 0.00 0.00 0.00 0.00 0.00 0.00 0.00 0.01 0.02 0.02 0.01 0.01 0.02 0.02 0.02 0.04 0.05 0.05 0.05 0.06 0.06 0.06 0.05 0.05
0.05 0.04 0.04 0.05 0.05 0.03 0.01 0.01 0.01 0.00 0.00 0.00 0.00 0.00 0.01 0.00 0.00 0.00 0.00 0.00 0.00 0.00 0.00 0.00 0.00 0.00 0.00 0.00 0.00 0.00 0.00 0.00 0.01 0.02 0.01 0.01 0.01 0.02 0.03 0.03 0.04 0.05 0.05 0.05 0.05 0.05 0.06 0.06 0.05
0.04 0.03 0.01 0.01 0.03 0.04 0.01 0.01 0.01 0.00 0.00 0.00 0.00 0.00 0.00 0.00 0.00 0.00 0.00 0.00 0.00 0.00 0.00 0.00 0.00 0.00 0.00 0.00 0.00 0.00 0.00 0.00 0.01 0.01 0.01 0.02 0.02 0.02 0.03 0.04 0.04 0.05 0.07 0.05 0.04 0.05 0.06 0.07 0.07
0.01 0.01 0.01 0.01 0.01 0.03 0.01 0.01 0.03 0.01 0.00 0.00 0.00 0.00 0.00 0.00 0.00 0.00 0.00 0.00 0.00 0.00 0.00 0.00 0.00 0.00 0.00 0.00 0.00 0.00 0.01 0.01 0.00 0.00 0.01 0.02 0.03 0.03 0.04 0.03 0.03 0.04 0.05 0.05 0.04 0.03 0.05 0.06 0.07
0.00 0.02 0.04 0.04 0.03 0.02 0.01 0.01 0.02 0.01 0.00 0.00 0.00 0.00 0.00 0.00 0.00 0.00 0.00 0.00 0.00 0.00 0.00 0.00 0.00 0.00 0.00 0.00 0.00 0.00 0.00 0.00 0.00 0.00 0.01 0.02 0.03 0.03 0.02 0.03 0.03 0.03 0.04 0.06 0.06 0.04 0.05 0.05 0.06
0.00 0.02 0.05 0.06 0.04 0.02 0.01 0.00 0.00 0.00 0.00 0.00 0.00 0.00 0.00 0.00 0.00 0.00 0.00 0.00 0.00 0.00 0.00 0.00 0.00 0.00 0.00 0.00 0.00 0.00 0.00 0.00 0.01 0.01 0.02 0.02 0.02 0.02 0.02 0.02 0.04 0.04 0.05 0.06 0.08 0.06 0.05 0.05 0.05
0.00 0.01 0.01 0.01 0.01 0.02 0.01 0.00 0.00 0.00 0.00 0.00 0.00 0.00 0.00 0.00 0.00 0.00 0.00 0.00 0.00 0.00 0.00 0.00 0.00 0.00 0.00 0.00 0.00 0.00 0.00 0.01 0.01 0.01 0.02 0.02 0.02 0.01 0.01 0.02 0.02 0.04 0.04 0.04 0.05 0.05 0.05 0.06 0.05
0.00 0.00 0.00 0.00 0.01 0.01 0.00 0.00 0.00 0.00 0.00 0.00 0.00 0.00 0.00 0.00 0.00 0.00 0.00 0.00 0.00 0.00 0.00 0.00 0.00 0.00 0.00 0.00 0.00 0.00 0.00 0.01 0.01 0.01 0.01 0.01 0.02 0.03 0.03 0.03 0.02 0.03 0.05 0.03 0.04 0.05 0.06 0.06 0.05
0.00 0.00 0.00 0.00 0.00 0.01 0.00 0.00 0.00 0.00 0.00 0.00 0.00 0.00 0.00 0.00 0.00 0.00 0.00 0.00 0.00 0.00 0.00 0.00 0.00 0.00 0.00 0.00 0.00 0.00 0.00 0.01 0.00 0.01 0.02 0.01 0.01 0.02 0.03 0.04 0.04 0.02 0.04 0.05 0.06 0.06 0.06 0.07 0.07
0.00 0.00 0.00 0.01 0.01 0.00 0.00 0.00 0.00 0.00 0.00 0.00 0.00 0.00 0.00 0.00 0.00 0.00 0.00 0.00 0.00 0.00 0.00 0.00 0.00 0.00 0.00 0.00 0.00 0.00 0.00 0.00 0.00 0.01 0.03 0.01 0.01 0.02 0.02 0.03 0.04 0.03 0.04 0.04 0.05 0.05 0.05 0.06 0.06
MSLP
1007.88 1008.81 1009.89 1010.95 1011.81 1012.36 1012.50 1012.26 1011.72 1011.04 1010.40 1009.95 1009.77 1009.88 1010.21 1010.63 1011.01 1011.21 1011.18 1010.93 1010.52 1010.06 1009.68 1009.47 1009.47 1009.65 1009.96 1010.29 1010.58 1010.77 1010.86 1010.86 1010.86 1010.90 1011.03 1011.26 1011.58 1011.92 1012.23 1012.46 1012.58 1012.59 1012.51 1012.39 1012.26 1012.15 1012.08 1012.04 1012.02
1008.24 1009.29 1010.38 1011.34 1012.02 1012.33 1012.22 1011.76 1011.07 1010.32 1009.69 1009.32 1009.26 1009.49 1009.93 1010.44 1010.86 1011.08 1011.05 1010.80 1010.40 1009.98 1009.64 1009.48 1009.52 1009.74 1010.07 1010.41 1010.69 1010.87 1010.94 1010.94 1010.94 1010.98 1011.13 1011.37 1011.69 1012.03 1012.33 1012.55 1012.65 1012.64 1012.54 1012.40 1012.26 1012.15 1012.07 1012.04 1012.01
1008.73 1009.83 1010.88 1011.69 1012.16 1012.21 1011.86 1011.21 1010.39 1009.61 1009.01 1008.72 1008.76 1009.10 1009.61 1010.16 1010.59 1010.81 1010.79 1010.55 1010.19 1009.82 1009.55 1009.45 1009.56 1009.81 1010.15 1010.49 1010.75 1010.90 1010.95 1010.94 1010.93 1010.98 1011.13 1011.39 1011.71 1012.04 1012.34 1012.54 1012.62 1012.59 1012.49 1012.35 1012.21 1012.11 1012.04 1012.01 1012.00
1009.30 1010.39 1011.33 1011.96 1012.20 1012.02 1011.47 1010.68 1009.80 1009.02 1008.49 1008.28 1008.41 1008.81 1009.35 1009.90 1010.31 1010.51 1010.48 1010.26 1009.94 1009.65 1009.46 1009.44 1009.60 1009.88 1010.22 1010.53 1010.75 1010.86 1010.87 1010.84 1010.82 1010.87 1011.03 1011.29 1011.61 1011.94 1012.22 1012.41 1012.49 1012.47 1012.37 1012.25 1012.13 1012.05 1012.00 1011.99 1011.99
1009.84 1010.86 1011.65 1012.08 1012.11 1011.75 1011.07 1010.21 1009.34 1008.63 1008.19 1008.08 1008.28 1008.72 1009.25 1009.76 1010.12 1010.27 1010.22 1010.01 1009.75 1009.52 1009.41 1009.46 1009.66 1009.96 1010.28 1010.54 1010.70 1010.75 1010.72 1010.65 1010.61 1010.66 1010.82 1011.08 1011.40 1011.72 1012.00 1012.19 1012.27 1012.26 1012.20 1012.10 1012.02 1011.97 1011.96 1011.97 1011.98
1010.28 1011.16 1011.76 1012.00 1011.85 1011.37 1010.64 1009.81 1009.03 1008.44 1008.13 1008.14 1008.40 1008.85 1009.35 1009.78 1010.07 1010.16 1010.07 1009.87 1009.65 1009.48 1009.44 1009.54 1009.77 1010.05 1010.33 1010.53 1010.62 1010.61 1010.52 1010.41 1010.36 1010.40 1010.55 1010.80 1011.11 1011.42 1011.69 1011.88 1011.97 1011.99 1011.95 1011.91 1011.88 1011.87 1011.90 1011.93 1011.95
1010.51 1011.21 1011.61 1011.67 1011.40 1010.86 1010.16 1009.44 1008.81 1008.40 1008.26 1008.38 1008.71 1009.15 1009.60 1009.95 1010.15 1010.17 1010.04 1009.85 1009.66 1009.54 1009.55 1009.68 1009.90 1010.16 1010.38 1010.51 1010.53 1010.45 1010.32 1010.18 1010.10 1010.13 1010.27 1010.50 1010.79 1011.08 1011.33 1011.51 1011.61 1011.65 1011.66 1011.66 1011.68 1011.73 1011.79 1011.86 1011.89
1010.51 1011.00 1011.21 1011.13 1010.78 1010.25 1009.64 1009.07 1008.65 1008.44 1008.47 1008.71 1009.09 1009.52 1009.91 1010.19 1010.30 1010.26 1010.11 1009.91 1009.75 1009.67 1009.71 1009.85 1010.06 1010.27 1010.43 1010.50 1010.46 1010.33 1010.16 1010.00 1009.91 1009.92 1010.04 1010.24 1010.49 1010.75 1010.97 1011.12 1011.22 1011.27 1011.31 1011.36 1011.43 1011.53 1011.64 1011.73 1011.78
1010.29 1010.59 1010.63 1010.43 1010.05 1009.58 1009.10 1008.71 1008.49 1008.48 1008.66 1009.00 1009.42 1009.84 1010.18 1010.39 1010.44 1010.36 1010.19 1010.01 1009.88 1009.83 1009.89 1010.03 1010.21 1010.38 1010.49 1010.50 1010.42 1010.26 1010.08 1009.92 1009.82 1009.83 1009.92 1010.08 1010.28 1010.48 1010.65 1010.76 1010.83 1010.89 1010.94 1011.02 1011.14 1011.27 1011.42 1011.54 1011.61
1009.94 1010.06 1009.97 1009.70 1009.33 1008.93 1008.58 1008.37 1008.32 1008.47 1008.77 1009.18 1009.61 1010.01 1010.30 1010.46 1010.48 1010.39 1010.25 1010.10 1010.01 1009.99 1010.06 1010.19 1010.34 1010.47 1010.54 1010.52 1010.42 1010.26 1010.09 1009.94 1009.86 1009.86 1009.93 1010.05 1010.19 1010.32 1010.41 1010.47 1010.50 1010.53 1010.58 1010.67 1010.81 1010.98 1011.15 1011.31 1011.41
1009.54 1009.55 1009.37 1009.07 1008.72 1008.40 1008.18 1008.09 1008.17 1008.41 1008.77 1009.19 1009.61 1009.97 1010.23 1010.36 1010.38 1010.32 1010.22 1010.13 1010.09 1010.11 1010.19 1010.32 1010.45 1010.55 1010.59 1010.55 1010.46 1010.33 1010.19 1010.08 1010.02 1010.02 1010.07 1010.14 1010.22 1010.27 1010.29 1010.27 1010.25 1010.24 1010.27 1010.35 1010.49 1010.67 1010.87 1011.05 1011.18
1009.23 1009.17 1008.95 1008.66 1008.35 1008.10 1007.95 1007.94 1008.08 1008.34 1008.68 1009.06 1009.43 1009.74 1009.96 1010.09 1010.14 1010.13 1010.10 1010.09 1010.11 1010.17 1010.27 1010.40 1010.51 1010.60 1010.63 1010.60 1010.54 1010.45 1010.36 1010.29 1010.26 1010.27 1010.30 1010.33 1010.35 1010.33 1010.27 1010.19 1010.11 1010.05 1010.04 1010.10 1010.22 1010.40 1010.60 1010.80 1010.96
1009.09 1009.01 1008.80 1008.53 1008.27 1008.07 1007.96 1007.97 1008.08 1008.29 1008.55 1008.84 1009.12 1009.36 1009.55 1009.69 1009.78 1009.85 1009.91 1009.98 1010.07 1010.18 1010.31 1010.44 1010.55 1010.63 1010.67 1010.67 1010.64 1010.60 1010.56 1010.54 1010.54 1010.55 1010.57 1010.57 1010.54 1010.47 1010.35 1010.22 1010.08 1009.98 1009.92 1009.94 1010.03 1010.18 1010.38 1010.58 1010.76
1009.16 1009.10 1008.93 1008.71 1008.49 1008.32 1008.21 1008.18 1008.21 1008.31 1008.44 1008.60 1008.76 1008.92 1009.08 1009.23 1009.38 1009.53 1009.68 1009.84 1010.00 1010.16 1010.31 1010.45 1010.57 1010.65 1010.71 1010.74 1010.76 1010.76 1010.77 1010.79 1010.81 1010.83 1010.83 1010.81 1010.75 1010.64 1010.50 1010.33 1010.16 1010.02 1009.92 1009.89 1009.94 1010.05 1010.22 1010.41 1010.60
1009.41 1009.39 1009.27 1009.10 1008.93 1008.77 1008.63 1008.53 1008.45 1008.40 1008.37 1008.38 1008.42 1008.50 1008.62 1008.79 1008.99 1009.21 1009.45 1009.69 1009.92 1010.12 1010.30 1010.45 1010.58 1010.68 1010.76 1010.83 1010.88 1010.93 1010.98 1011.01 1011.04 1011.06 1011.05 1011.01 1010.93 1010.82 1010.67 1010.49 1010.32 1010.15 1010.03 1009.95 1009.95 1010.01 1010.13 1010.30 1010.48
1009.76 1009.78 1009.72 1009.60 1009.46 1009.30 1009.13 1008.94 1008.74 1008.54 1008.35 1008.21 1008.13 1008.14 1008.23 1008.41 1008.66 1008.95 1009.26 1009.57 1009.84 1010.09 1010.29 1010.46 1010.60 1010.72 1010.84 1010.94 1011.03 1011.11 1011.17 1011.21 1011.23 1011.22 1011.20 1011.14 1011.06 1010.96 1010.83 1010.68 1010.51 1010.35 1010.21 1010.10 1010.04 1010.04 1010.11 1010.23 1010.39
1010.11 1010.16 1010.14 1010.07 1009.96 1009.80 1009.59 1009.33 1009.01 1008.68 1008.35 1008.08 1007.90 1007.85 1007.92 1008.11 1008.40 1008.75 1009.12 1009.47 1009.79 1010.06 1010.28 1010.47 1010.64 1010.79 1010.93 1011.07 1011.19 1011.29 1011.36 1011.39 1011.38 1011.35 1011.29 1011.23 1011.15 1011.07 1010.97 1010.86 1010.73 1010.59 1010.44 1010.30 1010.20 1010.14 1010.15 1010.22 1010.35
1010.37 1010.43 1010.44 1010.41 1010.33 1010.18 1009.94 1009.62 1009.21 1008.77 1008.33 1007.96 1007.71 1007.61 1007.67 1007.88 1008.21 1008.61 1009.02 1009.41 1009.76 1010.04 1010.28 1010.49 1010.68 1010.87 1011.06 1011.23 1011.38 1011.50 1011.56 1011.57 1011.53 1011.46 1011.37 1011.29 1011.21 1011.15 1011.10 1011.03 1010.95 1010.84 1010.70 1010.54 1010.40 1010.29 1010.24 1010.26 1010.34
1010.46 1010.52 1010.56 1010.58 1010.53 1010.40 1010.15 1009.78 1009.31 1008.78 1008.26 1007.82 1007.52 1007.40 1007.46 1007.70 1008.06 1008.50 1008.95 1009.36 1009.73 1010.03 1010.29 1010.51 1010.74 1010.96 1011.19 1011.41 1011.59 1011.72 1011.78 1011.77 1011.70 1011.58 1011.46 1011.36 1011.28 1011.24 1011.22 1011.20 1011.16 1011.08 1010.96 1010.80 1010.63 1010.48 1010.37 1010.35 1010.39
1010.39 1010.46 1010.54 1010.59 1010.59 1010.49 1010.24 1009.84 1009.32 1008.73 1008.14 1007.65 1007.32 1007.18 1007.26 1007.52 1007.92 1008.39 1008.87 1009.32 1009.70 1010.01 1010.28 1010.53 1010.78 1011.04 1011.31 1011.57 1011.79 1011.95 1012.01 1011.99 1011.89 1011.75 1011.59 1011.46 1011.38 1011.34 1011.35 1011.36 1011.36 1011.32 1011.22 1011.06 1010.88 1010.69 1010.55 1010.48 1010.50
1010.19 1010.29 1010.42 1010.54 1010.60 1010.53 1010.29 1009.87 1009.30 1008.65 1008.01 1007.47 1007.10 1006.96 1007.04 1007.33 1007.77 1008.28 1008.79 1009.26 1009.66 1009.98 1010.27 1010.53 1010.80 1011.09 1011.40 1011.70 1011.96 1012.15 1012.24 1012.22 1012.11 1011.95 1011.77 1011.62 1011.52 1011.48 1011.49 1011.53 1011.56 1011.54 1011.46 1011.31 1011.12 1010.93 1010.77 1010.67 1010.66
1009.93 1010.10 1010.32 1010.53 1010.66 1010.63 1010.39 1009.95 1009.33 1008.62 1007.90 1007.30 1006.89 1006.73 1006.82 1007.13 1007.60 1008.15 1008.70 1009.20 1009.61 1009.95 1010.24 1010.51 1010.79 1011.10 1011.44 1011.77 1012.07 1012.29 1012.41 1012.41 1012.32 1012.15 1011.97 1011.80 1011.69 1011.65 1011.66 1011.70 1011.74 1011.73 1011.67 1011.54 1011.36 1011.16 1010.99 1010.88 1010.86
1009.71 1009.99 1010.33 1010.65 1010.85 1010.87 1010.64 1010.16 1009.48 1008.67 1007.88 1007.19 1006.73 1006.53 1006.61 1006.93 1007.43 1008.01 1008.60 1009.13 1009.56 1009.91 1010.20 1010.47 1010.74 1011.05 1011.40 1011.75 1012.08 1012.33 1012.49 1012.53 1012.47 1012.33 1012.15 1011.99 1011.87 1011.81 1011.81 1011.85 1011.89 1011.89 1011.84 1011.73 1011.56 1011.38 1011.22 1011.11 1011.08
1009.60 1010.02 1010.50 1010.93 1011.22 1011.28 1011.04 1010.52 1009.75 1008.85 1007.95 1007.17 1006.62 1006.36 1006.42 1006.74 1007.26 1007.87 1008.50 1009.06 1009.52 1009.88 1010.16 1010.41 1010.67 1010.96 1011.29 1011.64 1011.98 1012.26 1012.46 1012.55 1012.53 1012.42 1012.28 1012.13 1012.02 1011.95 1011.94 1011.97 1012.00 1012.00 1011.96 1011.87 1011.72 1011.56 1011.42 1011.32 1011.30
1009.62 1010.19 1010.81 1011.36 1011.73 1011.82 1011.57 1010.99 1010.14 1009.13 1008.11 1007.22 1006.58 1006.25 1006.26 1006.57 1007.09 1007.74 1008.39 1008.99 1009.47 1009.84 1010.12 1010.34 1010.56 1010.81 1011.11 1011.44 1011.77 1012.07 1012.30 1012.43 1012.47 1012.42 1012.31 1012.20 1012.09 1012.03 1012.01 1012.03 1012.05 1012.06 1012.03 1011.95 1011.83 1011.70 1011.57 1011.49 1011.48
1009.76 1010.47 1011.21 1011.85 1012.27 1012.38 1012.11 1011.47 1010.54 1009.44 1008.31 1007.31 1006.58 1006.18 1006.13 1006.41 1006.93 1007.59 1008.27 1008.90 1009.40 1009.78 1010.06 1010.26 1010.44 1010.64 1010.89 1011.18 1011.49 1011.79 1012.04 1012.21 1012.29 1012.30 1012.25 1012.17 1012.09 1012.04 1012.03 1012.03 1012.05 1012.06 1012.04 1011.98 1011.89 1011.78 1011.69 1011.63 1011.62
1009.97 1010.76 1011.57 1012.27 1012.72 1012.82 1012.53 1011.86 1010.86 1009.68 1008.48 1007.40 1006.58 1006.11 1006.01 1006.25 1006.76 1007.42 1008.11 1008.76 1009.29 1009.69 1009.96 1010.14 1010.29 1010.45 1010.65 1010.89 1011.17 1011.45 1011.70 1011.90 1012.03 1012.09 1012.09 1012.06 1012.02 1011.99 1011.98 1012.00 1012.02 1012.03 1012.02 1011.98 1011.92 1011.84 1011.76 1011.72 1011.72
1010.17 1010.98 1011.80 1012.49 1012.93 1013.02 1012.71 1012.01 1010.99 1009.78 1008.54 1007.42 1006.55 1006.03 1005.87 1006.07 1006.54 1007.19 1007.88 1008.54 1009.09 1009.51 1009.79 1009.98 1010.11 1010.24 1010.39 1010.60 1010.84 1011.09 1011.34 1011.56 1011.72 1011.82 1011.87 1011.89 1011.89 1011.90 1011.91 1011.94 1011.98 1012.00 1012.01 1011.99 1011.94 1011.88 1011.83 1011.79 1011.80
1010.28 1011.03 1011.78 1012.41 1012.80 1012.86 1012.54 1011.85 1010.85 1009.67 1008.44 1007.32 1006.45 1005.89 1005.70 1005.84 1006.27 1006.87 1007.55 1008.20 1008.76 1009.20 1009.51 1009.72 1009.86 1009.99 1010.13 1010.31 1010.52 1010.76 1011.00 1011.22 1011.41 1011.54 1011.64 1011.70 1011.75 1011.79 1011.84 1011.90 1011.95 1012.00 1012.02 1012.02 1011.99 1011.94 1011.90 1011.87 1011.87
1010.26 1010.88 1011.50 1012.01 1012.32 1012.34 1012.02 1011.37 1010.44 1009.33 1008.18 1007.12 1006.27 1005.71 1005.47 1005.56 1005.92 1006.46 1007.09 1007.71 1008.28 1008.74 1009.08 1009.34 1009.52 1009.68 1009.84 1010.02 1010.24 1010.47 1010.70 1010.93 1011.13 1011.29 1011.42 1011.53 1011.62 1011.71 1011.79 1011.88 1011.97 1012.04 1012.08 1012.09 1012.07 1012.04 1011.99 1011.96 1011.95
Thickness
5801 5800 5796 5784 5764 5753 5751 5766 5778 5780 5787 5798 5802 5798 5787 5778 5769 5756 5779 5792 5791 5787 5782 5777 5774 5772 5771 5769 5767 5766 5765 5764 5762 5761 5761 5760 5760 5760 5760 5760 5760 5761 5761 5761 5760 5760 5760 5761 5761
5804 5801 5789 5774 5755 5747 5754 5773 5777 5783 5793 5802 5802 5798 5788 5780 5784 5779 5782 5788 5789 5785 5779 5775 5771 5769 5767 5765 5763 5762 5761 5760 5759 5758 5757 5757 5757 5757 5757 5757 5757 5758 5758 5758 5758 5758 5758 5758 5759
5803 5799 5780 5766 5759 5755 5759 5778 5784 5792 5800 5799 5795 5795 5785 5778 5783 5780 5784 5788 5786 5782 5776 5770 5767 5765 5763 5761 5759 5758 5757 5755 5755 5754 5754 5754 5754 5754 5754 5754 5754 5754 5755 5755 5755 5756 5756 5756 5757
5797 5786 5776 5763 5759 5775 5781 5786 5791 5789 5794 5798 5794 5784 5782 5788 5786 5784 5786 5786 5781 5777 5772 5767 5764 5761 5759 5757 5755 5753 5752 5751 5750 5750 5750 5749 5749 5750 5750 5750 5750 5751 5752 5753 5753 5753 5753 5754 5755
5792 5775 5762 5759 5767 5783 5793 5795 5795 5787 5788 5792 5789 5774 5771 5784 5789 5786 5784 5782 5777 5774 5770 5764 5761 5758 5755 5753 5751 5749 5748 5747 5746 5745 5745 5745 5745 5745 5746 5746 5747 5747 5748 5749 5750 5750 5751 5752 5753
5776 5769 5755 5754 5767 5782 5792 5798 5795 5788 5787 5790 5785 5774 5769 5783 5783 5781 5782 5779 5776 5772 5768 5762 5758 5755 5752 5750 5748 5746 5744 5742 5741 5741 5740 5740 5741 5741 5742 5743 5743 5744 5744 5746 5747 5748 5749 5750 5751
5768 5762 5757 5762 5765 5773 5787 5798 5792 5786 5783 5787 5789 5772 5768 5775 5779 5780 5779 5776 5774 5771 5767 5762 5757 5754 5750 5747 5744 5742 5740 5739 5738 5737 5737 5736 5736 5737 5737 5738 5739 5740 5740 5742 5743 5744 5746 5747 5748
5777 5763 5759 5763 5765 5770 5790 5795 5795 5789 5784 5795 5793 5773 5763 5772 5779 5778 5775 5772 5770 5768 5765 5762 5759 5754 5749 5745 5742 5740 5738 5736 5735 5734 5733 5733 5733 5734 5734 5734 5735 5735 5736 5738 5739 5741 5742 5744 5746
5780 5755 5751 5764 5767 5773 5790 5789 5793 5798 5791 5790 5791 5784 5779 5779 5778 5771 5767 5766 5764 5764 5763 5761 5757 5754 5750 5747 5743 5740 5737 5735 5733 5732 5731 5730 5730 5732 5731 5731 5731 5731 5732 5734 5735 5737 5739 5741 5743
5767 5749 5760 5777 5783 5780 5786 5786 5788 5786 5780 5778 5780 5782 5782 5778 5773 5766 5762 5760 5758 5758 5759 5759 5756 5753 5750 5747 5743 5739 5736 5733 5732 5731 5729 5728 5728 5728 5728 5728 5728 5728 5728 5729 5731 5733 5735 5738 5740
5770 5763 5774 5782 5790 5788 5785 5785 5790 5780 5770 5775 5774 5775 5775 5773 5770 5766 5763 5761 5759 5759 5757 5757 5755 5753 5749 5745 5741 5738 5735 5732 5730 5728 5727 5725 5724 5724 5724 5723 5724 5724 5724 5725 5727 5728 5731 5734 5737
5770 5775 5781 5784 5790 5787 5784 5785 5783 5780 5778 5786 5784 5780 5775 5770 5768 5765 5763 5763 5761 5758 5756 5755 5754 5751 5748 5744 5740 5737 5734 5730 5727 5725 5723 5722 5720 5718 5718 5718 5719 5719 5720 5722 5723 5725 5727 5731 5733
5766 5772 5782 5786 5786 5786 5784 5780 5779 5779 5787 5789 5785 5779 5774 5772 5770 5769 5768 5766 5763 5757 5756 5754 5752 5749 5746 5742 5738 5736 5732 5728 5725 5722 5719 5718 5716 5714 5713 5713 5713 5714 5715 5716 5718 5720 5723 5726 5729
5771 5773 5777 5781 5782 5783 5777 5776 5777 5778 5788 5784 5779 5775 5774 5773 5771 5770 5768 5765 5762 5759 5756 5754 5751 5748 5744 5740 5736 5733 5730 5726 5723 5719 5716 5715 5713 5710 5708 5707 5707 5708 5709 5711 5712 5715 5717 5720 5723
5772 5764 5766 5774 5778 5780 5775 5764 5772 5782 5786 5779 5777 5776 5775 5775 5773 5770 5769 5767 5764 5760 5757 5754 5750 5747 5742 5738 5734 5731 5728 5724 5720 5716 5713 5711 5708 5706 5704 5702 5701 5702 5703 5705 5706 5709 5712 5714 5718
5759 5751 5744 5764 5774 5777 5764 5748 5769 5781 5778 5774 5775 5775 5773 5774 5775 5774 5773 5769 5767 5762 5757 5753 5751 5745 5741 5736 5733 5730 5726 5721 5717 5713 5710 5707 5704 5702 5699 5696 5696 5697 5697 5698 5699 5701 5703 5706 5710
5743 5735 5739 5753 5772 5773 5763 5754 5768 5780 5775 5771 5773 5774 5773 5773 5775 5775 5774 5770 5767 5762 5757 5753 5749 5744 5740 5736 5732 5728 5724 5719 5715 5711 5706 5703 5700 5697 5695 5692 5692 5692 5692 5692 5693 5695 5696 5698 5702
5730 5736 5740 5747 5763 5766 5759 5759 5768 5777 5775 5773 5774 5775 5774 5774 5774 5776 5773 5770 5766 5762 5758 5752 5747 5743 5739 5734 5730 5725 5720 5717 5713 5708 5704 5700 5696 5694 5691 5689 5688 5687 5686 5686 5687 5688 5691 5693 5697
5740 5738 5736 5747 5764 5761 5759 5761 5768 5776 5774 5773 5773 5775 5775 5776 5779 5777 5773 5768 5764 5760 5755 5750 5746 5742 5737 5730 5725 5719 5715 5713 5710 5706 5702 5698 5695 5692 5689 5686 5684 5683 5681 5681 5683 5684 5685 5688 5693
5736 5733 5738 5747 5763 5761 5761 5764 5774 5779 5777 5777 5776 5777 5778 5777 5775 5771 5769 5765 5761 5757 5753 5749 5745 5741 5736 5729 5725 5720 5715 5712 5709 5705 5701 5697 5693 5690 5687 5683 5681 5680 5679 5678 5679 5680 5680 5683 5687
5734 5735 5737 5738 5751 5766 5762 5756 5767 5779 5783 5782 5781 5781 5780 5776 5772 5768 5766 5763 5759 5755 5751 5749 5744 5740 5735 5730 5725 5720 5715 5710 5706 5702 5698 5696 5692 5689 5685 5682 5680 5679 5677 5676 5676 5677 5676 5676 5681
5730 5746 5748 5747 5742 5744 5756 5736 5758 5771 5772 5775 5776 5777 5777 5777 5774 5770 5766 5762 5758 5755 5752 5748 5744 5739 5734 5729 5722 5716 5709 5704 5703 5700 5697 5695 5692 5688 5684 5682 5680 5678 5677 5675 5675 5676 5676 5675 5674
5742 5755 5755 5752 5744 5740 5753 5744 5752 5768 5763 5768 5774 5777 5778 5777 5775 5770 5766 5762 5759 5756 5751 5747 5742 5737 5733 5728 5722 5716 5710 5707 5704 5701 5697 5693 5691 5688 5685 5682 5680 5678 5676 5675 5674 5674 5674 5674 5673
5758 5756 5755 5754 5745 5727 5747 5743 5743 5761 5765 5769 5775 5778 5778 5777 5774 5770 5767 5762 5758 5753 5749 5745 5739 5735 5731 5727 5722 5717 5711 5707 5703 5699 5695 5692 5690 5687 5685 5682 5680 5677 5676 5675 5673 5673 5673 5673 5673
5754 5740 5723 5721 5720 5728 5756 5747 5748 5768 5777 5776 5775 5777 5778 5775 5771 5767 5762 5757 5753 5749 5746 5742 5738 5732 5730 5726 5723 5719 5713 5708 5703 5699 5695 5691 5689 5686 5684 5682 5680 5677 5676 5675 5674 5672 5672 5672 5671
5752 5744 5717 5704 5713 5733 5752 5746 5757 5777 5781 5782 5781 5778 5777 5773 5770 5766 5762 5757 5753 5749 5745 5741 5737 5732 5729 5725 5722 5719 5715 5709 5705 5701 5697 5693 5690 5687 5686 5683 5681 5679 5677 5676 5674 5672 5671 5672 5671
5748 5747 5751 5735 5734 5730 5745 5759 5765 5776 5774 5775 5775 5773 5771 5771 5769 5765 5762 5758 5753 5749 5745 5742 5737 5733 5729 5726 5722 5719 5715 5710 5706 5703 5699 5695 5693 5690 5687 5684 5681 5679 5677 5676 5674 5671 5670 5670 5670
5761 5757 5748 5735 5718 5716 5733 5745 5747 5757 5763 5768 5769 5769 5770 5770 5768 5766 5762 5758 5755 5751 5747 5743 5739 5734 5730 5726 5723 5719 5715 5711 5707 5703 5699 5696 5694 5691 5688 5684 5682 5679 5677 5675 5673 5671 5670 5669 5669
5753 5751 5749 5743 5739 5720 5715 5731 5768 5766 5768 5768 5770 5772 5771 5769 5767 5765 5762 5759 5756 5752 5747 5743 5739 5735 5730 5727 5723 5719 5715 5712 5708 5704 5701 5698 5695 5692 5689 5686 5682 5679 5677 5675 5672 5670 5669 5668 5668
5761 5755 5750 5730 5729 5735 5725 5734 5776 5775 5775 5774 5772 5773 5773 5771 5768 5765 5762 5759 5755 5751 5748 5744 5740 5736 5731 5728 5724 5720 5716 5712 5708 5705 5702 5699 5696 5693 5690 5687 5683 5680 5677 5675 5672 5670 5669 5668 5667